Home   Weather   Oberlin   Past weeks
Flag for USA

Past Weather in Oberlin, Ohio, USA — Yesterday and Last 2 Weeks

Now
37 °F

Clear.


Feels Like: 34 °F
Forecast: 68 / 34 °F
Wind: 3 mph from South

Location: Lorain County Regional Airport

Current Time: Oct 15, 2019 at 7:57:10 am

Latest Report: Oct 15, 2019 at 6:53 am


Visibility: 10 mi

Pressure: 30.15 "Hg

Humidity: 79%

Dew Point: 31 °F

Location of OberlinLocation

Past Weather in Oberlin — Graph

°F

Oberlin Temperature Yesterday

Maximum temperature yesterday: 57 °F (at 3:53 pm)
Minimum temperature yesterday: 38 °F (at 11:53 pm)
Average temperature yesterday: 49 °F

High & Low Weather Summary for the Past Weeks

 TemperatureHumidityPressure
High90 °F (Oct 1, 2:53 pm)87% (Sep 30, 7:53 am)30.36 "Hg (Sep 30, 7:53 am)
Low35 °F (Oct 15, 4:53 am)21% (Oct 13, 1:53 pm)29.83 "Hg (Oct 13, 4:53 pm)
Average60 °F65%30.09 "Hg
* Reported Sep 30 5:53 am — Oct 15 5:53 am, Oberlin. Weather by CustomWeather, © 2019

Note: Actual official high and low records may vary slightly from our data, if they occured in-between our weather recording intervals... More about our weather records

Advertising

Oberlin Weather History for the Previous 24 Hours

Scroll right to see more
 ConditionsComfort  
Time TempWeatherWind HumidityBarometerVisibility
5:53 am
Tue, Oct 15
36 °FClear.3 mph82%30.14 "Hg10 mi
4:53 am35 °FClear.3 mph82%30.14 "Hg10 mi
3:53 am37 °FClear.No wind79%30.14 "Hg10 mi
2:53 am36 °FClear.No wind82%30.14 "Hg10 mi
1:53 am36 °FClear.3 mph82%30.14 "Hg10 mi
12:53 am37 °FClear.3 mph79%30.14 "Hg10 mi
11:53 pm
Mon, Oct 14
38 °FClear.3 mph79%30.14 "Hg10 mi
10:53 pm39 °FClear.3 mph76%30.13 "Hg10 mi
9:53 pm41 °FClear.3 mph74%30.13 "Hg10 mi
8:53 pm43 °FClear.No wind65%30.11 "HgN/A
7:53 pm48 °FClear.3 mph52%30.10 "HgN/A
6:53 pm50 °FClear.6 mph50%30.09 "Hg9 mi
5:53 pm54 °FSunny.10 mph43%30.08 "Hg10 mi
4:53 pm56 °FPassing clouds.10 mph40%30.07 "Hg10 mi
3:53 pm57 °FPassing clouds.10 mph39%30.06 "Hg10 mi
2:53 pm54 °FPartly sunny.9 mph45%30.06 "Hg10 mi
1:53 pm53 °FOvercast.13 mph45%30.06 "Hg10 mi
12:53 pm53 °FOvercast.10 mph45%30.06 "Hg10 mi
11:53 am54 °FPartly sunny.14 mph41%30.07 "Hg10 mi
10:53 am52 °FSunny.14 mph49%30.06 "Hg10 mi
9:53 am50 °FScattered clouds.13 mph54%30.04 "Hg10 mi
8:53 am48 °FOvercast.8 mph59%30.03 "HgN/A
7:53 am44 °FPartly sunny.8 mph65%30.01 "HgN/A
Weather by CustomWeather, © 2019

See weather overview